Location: Peebles
(55.6412°N, 3.1714°W)
Time: 18:27:01
(UTC+01:00)

USA 238 DEB - Pass Details

Date: 28 January 2022
Orbit: 969 x 1243 km, 63.4° (Epoch: 04 May)

Event Time Altitude Azimuth Distance (km) Brightness Sun altitude
Rises 19:38:48 0° 285° (WNW) 3,803 7.9 -25.1°
Reaches altitude 10° 19:41:30 10° 292° (WNW) 2,887 6.9 -25.5°
Maximum altitude 19:48:04 46° 4° (N) 1,466 4.3 -26.4°
Enters shadow 19:49:49 39° 40° (NE) 1,628 4.3 -26.6°
